Fairbanks Eiels, AK

9:47 PM AKDT on June 22, 2017 (GMT -0800)
Eielson Air Force Base

Weather History for PAEI - June, 2013

Change the Weather History Date:

Saturday, June 8, 2013

  Actual Average Record
Temperature  
Mean Temperature 58 °F -  
Max Temperature 72 °F 68 °F 85 °F (1957)
Min Temperature 44 °F 45 °F 35 °F (1992)
Degree Days  
Heating Degree Days 7    
Growing Degree Days 8 (Base 50)    
Moisture  
Dew Point 42 °F    
Average Humidity 50    
Maximum Humidity 85    
Minimum Humidity 29    
Precipitation  
Precipitation 0.00 in - - ()
Sea Level Pressure  
Sea Level Pressure 30.02 in    
Wind  
Wind Speed 5 mph (West)    
Max Wind Speed 15 mph    
Max Gust Speed 21 mph    
Visibility 10 miles    
Events      
Averages and records for this station are not official NWS values.
T = Trace of Precipitation, MM = Missing Value Source: NWS Daily Summary

Daily Weather History Graph

Daily Weather History Graph

Search for Another Location

Airport or City:

Trip Planner

Search our weather history database for the weather conditions in past years. The results will help you decide how hot, cold, wet, or windy it might be!

Date:

Astronomy

Jun. 08, 2013 Rise Set
Actual Time 3:14 AM AKDT 12:22 AM AKDT
Civil Twilight Sun does not set Sun does not set
Nautical Twilight Sun does not set Sun does not set
Astronomical Twilight Sun does not set Sun does not set
Moon 4:19 AM AKDT (6/8) 11:39 PM AKDT (6/8)
Length of Visible Light 24h 00m
Length of Day
21h 07m
New Moon, 0% of the Moon is Illuminated
Jun 8
New Moon
Jun 16
First Quarter
Jun 23
Full
Jun 29
Last Quarter
Jul 7
New

Hourly Weather History & Observations

Time (AKDT) Temp. Windchill Dew Point Humidity Pressure Visibility Wind Dir Wind Speed Gust Speed Precip Events Conditions
12:55 AM 58.6 °F - 43.2 °F 56% 29.92 in 10.0 mi WNW 4.6 mph - 0.00 in   Overcast
1:55 AM 51.4 °F - 42.6 °F 72% 29.94 in 10.0 mi Calm Calm - N/A   Overcast
2:55 AM 47.8 °F - 41.5 °F 79% 29.95 in 10.0 mi Variable 5.8 mph - N/A   Mostly Cloudy
3:55 AM 45.7 °F 42.7 °F 40.8 °F 83% 29.97 in 10.0 mi Variable 5.8 mph - N/A   Overcast
4:55 AM 44.4 °F 42.0 °F 40.1 °F 85% 29.98 in 10.0 mi Variable 4.6 mph - N/A   Clear
5:55 AM 48.0 °F - 41.7 °F 79% 29.99 in 10.0 mi Variable 3.5 mph - N/A   Partly Cloudy
6:55 AM 53.1 °F - 42.3 °F 67% 30.00 in 10.0 mi South 3.5 mph - N/A   Overcast
7:55 AM 54.5 °F - 42.1 °F 63% 30.01 in 10.0 mi Variable 5.8 mph - N/A   Clear
8:55 AM 60.3 °F - 44.1 °F 55% 30.02 in 10.0 mi Calm Calm - N/A   Partly Cloudy
9:55 AM 63.9 °F - 43.7 °F 48% 30.02 in 10.0 mi Calm Calm - N/A   Scattered Clouds
10:55 AM 66.4 °F - 42.8 °F 42% 30.02 in 10.0 mi Calm Calm - N/A   Clear
11:55 AM 67.8 °F - 43.9 °F 42% 30.02 in 10.0 mi WSW 8.1 mph - N/A   Clear
12:55 PM 70.5 °F - 39.7 °F 33% 30.01 in 10.0 mi WSW 8.1 mph - N/A   Clear
1:55 PM 70.9 °F - 39.9 °F 32% 30.02 in 10.0 mi West 11.5 mph 18.4 mph N/A   Clear
2:12 PM 71.6 °F - 41.0 °F 33% 30.02 in 10.0 mi NNW 15.0 mph 20.7 mph N/A   Scattered Clouds
2:55 PM 72.0 °F - 38.1 °F 29% 30.03 in 10.0 mi NW 9.2 mph 18.4 mph N/A   Mostly Cloudy
3:55 PM 69.4 °F - 36.7 °F 30% 30.04 in 10.0 mi Variable 5.8 mph - N/A   Overcast
4:55 PM 71.8 °F - 40.3 °F 32% 30.04 in 10.0 mi WNW 10.4 mph - N/A   Mostly Cloudy
5:55 PM 71.4 °F - 39.2 °F 31% 30.04 in 10.0 mi NNW 10.4 mph - N/A   Overcast
6:55 PM 70.9 °F - 39.4 °F 32% 30.04 in 10.0 mi WNW 10.4 mph - N/A   Scattered Clouds
7:55 PM 69.3 °F - 42.3 °F 38% 30.05 in 10.0 mi SW 8.1 mph - N/A   Overcast
8:55 PM 68.0 °F - 42.8 °F 40% 30.06 in 10.0 mi Variable 6.9 mph - N/A   Scattered Clouds
9:55 PM 65.3 °F - 42.6 °F 44% 30.07 in 10.0 mi Variable 6.9 mph - N/A   Mostly Cloudy
10:55 PM 62.6 °F - 43.3 °F 49% 30.09 in 10.0 mi Calm Calm - N/A   Mostly Cloudy
11:55 PM 59.7 °F - 44.1 °F 56% 30.11 in 10.0 mi Calm Calm - N/A   Mostly Cloudy